PILOTS ONLINE: 580    ATC ONLINE: 161

KSMO

Santa Monica Municipal Airport

Location

City Santa Monica
Country  United States
Latitude 34° 0' 56" N
Longitude 118° 27' 3" W
Elevation 177 ft
Type Small Airport

Map

Weather

METAR
2014/10/24 17:51
KSMO 241751Z VRB03KT 7SM CLR 27/07 A2999 RMK AO2 SLP154 T02720072 10272 20150 50004
TAF
No TAF available

Runways

03/21 4973 ft / 150 ft

Outbound flights

Callsign Flying to Pilot ATD/STD ETA Aircraft

Inbound flights

Callsign Flying from Pilot ATD ETA Aircraft